Date,TemperatureHighF,TemperatureAvgF,TemperatureLowF,DewpointHighF,DewpointAvgF,DewpointLowF,HumidityHigh,HumidityAvg,HumidityLow,PressureMaxIn,PressureMinIn,WindSpeedMaxMPH,WindSpeedAvgMPH,GustSpeedMaxMPH,PrecipitationSumIn
2013-2-2,26,25,23,19,18,18,79,76,73,30.07,29.97,0,0,1,0.00
2013-2-3,34,26,21,23,19,16,82,74,66,30.00,29.75,6,1,11,0.00
2013-2-4,32,26,20,18,14,11,72,61,48,29.98,29.79,7,2,8,0.00
2013-2-5,33,30,25,28,24,17,85,79,67,29.95,29.84,3,0,3,0.00
2013-2-6,40,32,25,28,22,12,88,68,51,30.35,29.87,7,1,10,0.00
2013-2-7,36,28,20,20,16,10,66,58,48,30.48,30.25,3,1,5,0.00
2013-2-8,35,32,29,32,28,16,90,83,56,30.38,29.62,7,2,9,0.00
2013-2-9,34,27,18,30,16,6,90,64,44,30.35,29.72,12,2,12,0.00
2013-2-10,37,27,16,19,14,7,70,58,45,30.46,30.25,4,1,4,0.00
2013-2-11,42,36,28,40,32,17,93,84,60,30.28,29.62,3,1,6,0.00
2013-2-12,45,38,30,36,27,21,90,63,51,29.97,29.70,10,2,10,0.00
2013-2-13,45,35,25,31,26,20,82,71,53,29.94,29.63,4,0,4,0.00
2013-2-14,45,37,30,34,29,23,87,74,55,29.99,29.67,4,1,5,0.20
2013-2-15,56,41,30,38,30,25,85,67,44,30.00,29.86,10,1,10,0.00
2013-2-16,39,34,28,32,23,12,85,64,50,29.96,29.70,5,1,5,0.00
2013-2-17,36,25,18,22,6,0,58,45,35,30.05,29.66,12,3,12,0.00
2013-2-18,35,26,16,14,9,2,57,49,39,30.27,30.01,9,2,13,0.00
2013-2-19,45,35,24,39,26,12,90,70,52,30.16,29.65,8,2,10,0.50
2013-2-20,36,29,23,26,15,11,69,56,46,29.99,29.70,13,3,18,0.00
2013-2-21,35,27,22,19,14,11,69,58,46,30.28,29.94,8,2,10,0.00
2013-2-22,40,31,21,27,21,13,75,67,54,30.38,30.20,5,1,6,0.00
2013-2-23,42,37,32,40,34,24,94,90,57,30.27,29.76,4,1,4,0.00
2013-2-24,48,38,31,41,30,22,92,74,57,30.22,29.71,8,2,8,0.00
2013-2-25,46,36,30,31,26,22,77,66,53,30.22,29.97,5,1,7,0.00
2013-2-26,46,37,30,34,30,24,92,76,59,30.26,29.80,8,2,12,0.20
2013-2-27,50,42,36,46,38,34,94,85,72,29.80,29.47,9,2,9,0.40
2013-2-28,50,41,35,39,33,29,85,74,54,29.62,29.51,6,1,7,0.00